period_start,C,m1,H,J0,J1,J2,J3,J4,J5,JA,JB,JC,JD,JJ,JK,JN,#
2015-09-16 00:00:53,0.01,0.02,0.00,21.45,27.35,30.54,14.88,49.33,1027.36,2038.15,3492.53,3228.97,3518.78,599.98,605.47,6.59,0000 0000 0000 0000 000000
2015-09-16 00:05:55,0.01,0.02,0.00,21.43,27.35,30.51,14.87,49.30,1027.36,2038.11,3492.11,3228.95,3518.37,599.86,605.42,6.64,0000 0000 0000 0000 000000
2015-09-16 00:10:57,0.00,0.02,0.00,21.38,27.35,30.48,14.85,49.28,1027.36,2038.15,3492.04,3228.95,3518.25,600.04,605.80,6.69,0000 0000 0000 0000 000000
2015-09-16 00:15:58,0.01,0.03,0.00,21.35,27.34,30.46,14.85,49.44,1027.37,2038.19,3492.00,3228.88,3518.07,600.05,605.78,6.74,0000 0000 0000 0000 000000
2015-09-16 00:20:59,0.01,0.03,0.00,21.43,27.32,30.50,14.87,49.33,1027.36,2038.22,3492.00,3228.94,3518.03,599.98,605.47,6.79,0000 0000 0000 0000 000000
2015-09-16 00:26:00,0.03,0.03,0.00,21.82,27.32,30.60,14.87,49.28,1027.37,2038.46,3492.00,3228.97,3518.01,600.19,604.97,6.84,0000 0000 0000 0000 000000
2015-09-16 00:31:02,-0.01,0.03,0.00,21.87,27.34,30.51,14.94,49.35,1027.38,2038.48,3492.00,3228.94,3518.00,600.05,604.70,6.89,0000 0000 0000 0000 000000
2015-09-16 00:36:03,-0.00,0.03,0.00,21.65,27.34,30.49,14.82,49.38,1027.37,2038.43,3492.00,3228.94,3518.00,599.85,604.91,6.94,0000 0000 0000 0000 000000
2015-09-16 00:41:04,-0.02,0.03,0.00,21.55,27.34,30.60,14.82,49.34,1027.38,2038.34,3491.95,3228.75,3518.00,599.96,605.25,6.99,0000 0000 0000 0000 000000
2015-09-16 00:46:06,0.00,0.03,0.00,21.53,27.34,30.60,14.86,49.06,1027.38,2038.14,3491.76,3228.50,3517.98,599.95,605.21,7.04,0000 0000 0000 0000 000000
2015-09-16 00:51:07,0.01,0.03,0.00,21.49,27.33,30.56,14.88,49.38,1027.40,2038.09,3491.24,3228.19,3517.86,599.89,605.40,7.09,0000 0000 0000 0000 000000
2015-09-16 00:56:08,0.02,0.03,0.00,21.42,27.32,30.50,14.92,49.29,1027.42,2038.23,3491.05,3228.23,3517.86,599.93,605.64,7.14,0000 0000 0000 0000 000000
2015-09-16 01:01:09,-0.00,0.03,0.00,21.43,27.32,30.49,14.82,49.23,1027.42,2038.18,3491.03,3228.21,3517.79,599.66,605.22,7.19,0000 0000 0000 0000 000000
2015-09-16 01:06:10,0.00,0.03,0.00,21.45,27.32,30.49,14.91,49.28,1027.48,2038.18,3491.01,3228.18,3517.62,600.39,605.95,7.24,0000 0000 0000 0000 000000
2015-09-16 01:11:12,0.00,0.03,0.00,21.77,27.32,30.60,14.82,49.38,1027.60,2038.16,3491.00,3228.14,3517.29,599.89,604.84,7.29,0000 0000 0000 0000 000000
2015-09-16 01:16:13,0.01,0.03,0.00,21.97,27.33,30.46,14.87,49.36,1027.72,2038.21,3491.00,3228.05,3517.15,600.06,604.66,7.34,0000 0000 0000 0000 000000
2015-09-16 01:21:14,0.00,0.03,0.00,21.78,27.35,30.42,14.81,49.18,1027.77,2038.26,3490.99,3228.02,3517.04,599.73,604.82,7.39,0000 0000 0000 0000 000000
2015-09-16 01:26:16,-0.01,0.03,0.00,21.64,27.35,30.53,14.78,49.25,1027.70,2038.21,3490.94,3228.01,3517.01,599.80,605.13,7.44,0000 0000 0000 0000 000000
2015-09-16 01:31:17,0.00,0.03,0.00,21.60,27.35,30.63,14.85,49.37,1027.59,2038.08,3490.69,3228.00,3516.99,600.04,605.41,7.49,0000 0000 0000 0000 000000
2015-09-16 01:36:19,0.01,0.03,0.00,21.56,27.35,30.61,14.77,49.42,1027.60,2038.09,3490.37,3228.00,3516.99,599.75,605.19,7.54,0000 0000 0000 0000 000000
2015-09-16 01:41:20,0.00,0.03,0.00,21.49,27.35,30.54,14.90,49.48,1027.58,2038.12,3490.13,3228.00,3516.99,600.16,605.62,7.59,0000 0000 0000 0000 000000
2015-09-16 01:46:21,-0.00,0.03,0.00,21.49,27.35,30.49,14.84,49.41,1027.63,2038.10,3490.01,3228.00,3516.97,599.87,605.43,7.64,0000 0000 0000 0000 000000
2015-09-16 01:51:23,0.00,0.03,0.00,21.67,27.35,30.58,14.95,49.47,1027.52,2038.06,3490.00,3228.00,3516.86,600.35,605.44,7.69,0000 0000 0000 0000 000000
2015-09-16 01:56:24,0.00,0.03,0.00,22.01,27.35,30.50,14.80,49.17,1027.38,2038.05,3489.99,3227.99,3516.31,600.01,604.44,7.74,0000 0000 0000 0000 000000
2015-09-16 02:01:26,0.00,0.03,0.00,21.95,27.37,30.41,14.88,49.21,1027.41,2038.03,3489.98,3227.98,3516.06,600.35,604.88,7.79,0000 0000 0000 0000 000000
2015-09-16 02:06:27,0.00,0.03,0.00,21.74,27.37,30.42,14.79,49.27,1027.45,2038.04,3489.94,3227.99,3516.03,599.84,604.85,7.84,0000 0000 0000 0000 000000
2015-09-16 02:11:29,0.00,0.03,0.00,21.66,27.37,30.54,14.83,49.24,1027.57,2038.06,3489.76,3227.98,3516.00,600.06,605.31,7.89,0000 0000 0000 0000 000000
2015-09-16 02:16:30,-0.00,0.03,0.00,21.64,27.37,30.65,14.85,49.38,1027.69,2038.03,3489.71,3227.97,3516.00,600.11,605.42,7.94,0000 0000 0000 0000 000000
2015-09-16 02:21:31,0.01,0.03,0.00,21.64,27.37,30.64,14.89,49.33,1027.75,2038.03,3489.32,3227.97,3516.00,600.08,605.34,7.99,0000 0000 0000 0000 000000
2015-09-16 02:26:33,0.00,0.03,0.00,21.64,27.37,30.61,14.82,49.36,1027.79,2038.03,3489.04,3227.92,3516.00,599.98,605.37,8.04,0000 0000 0000 0000 000000
2015-09-16 02:31:34,0.00,0.03,0.00,21.68,27.37,30.60,14.95,49.51,1027.75,2038.03,3489.00,3227.88,3515.99,600.46,605.69,8.09,0000 0000 0000 0000 000000
2015-09-16 02:36:35,0.00,0.03,0.00,22.01,27.38,30.42,14.81,49.26,1027.65,2038.06,3489.00,3227.89,3515.98,600.04,604.58,8.14,0000 0000 0000 0000 000000
2015-09-16 02:41:37,0.01,0.03,0.00,22.22,27.40,30.39,14.80,49.07,1027.51,2038.03,3489.00,3227.49,3515.85,600.02,604.09,8.19,0000 0000 0000 0000 000000
2015-09-16 02:46:38,0.01,0.03,0.00,22.05,27.41,30.40,14.77,49.23,1027.53,2038.01,3488.96,3227.14,3515.28,600.24,604.54,8.24,0000 0000 0000 0000 000000
2015-09-16 02:51:39,0.01,0.03,0.00,21.88,27.42,30.44,14.73,49.18,1027.67,2038.02,3488.76,3227.04,3515.08,599.88,604.66,8.29,0000 0000 0000 0000 000000
2015-09-16 02:56:40,0.00,0.03,0.00,21.80,27.42,30.48,14.87,49.27,1027.65,2038.00,3488.24,3227.01,3515.00,600.05,604.75,8.34,0000 0000 0000 0000 000000
2015-09-16 03:01:41,0.00,0.03,0.00,21.77,27.42,30.63,14.90,49.27,1027.63,2038.00,3488.01,3227.01,3515.00,600.16,605.17,8.39,0000 0000 0000 0000 000000
2015-09-16 03:06:43,0.00,0.03,0.00,21.69,27.42,30.72,14.85,49.36,1027.53,2038.00,3488.00,3227.00,3514.98,599.87,604.92,8.45,0000 0000 0000 0000 000000
2015-09-16 03:11:44,0.00,0.03,0.00,21.70,27.42,30.64,14.76,49.35,1027.44,2038.00,3487.99,3227.00,3514.97,599.74,604.84,8.50,0000 0000 0000 0000 000000
2015-09-16 03:16:45,0.00,0.03,0.00,22.05,27.43,30.44,14.85,49.08,1027.47,2038.00,3487.98,3227.00,3514.94,599.99,604.34,8.55,0000 0000 0000 0000 000000
2015-09-16 03:21:46,0.01,0.03,0.00,22.14,27.45,30.42,14.79,49.13,1027.51,2038.00,3487.98,3226.99,3514.60,600.18,604.26,8.60,0000 0000 0000 0000 000000
2015-09-16 03:26:48,0.01,0.03,0.00,21.93,27.45,30.43,14.85,49.31,1027.45,2038.00,3487.62,3226.95,3514.08,599.98,604.67,8.65,0000 0000 0000 0000 000000
2015-09-16 03:31:49,0.00,0.03,0.00,21.81,27.45,30.49,14.87,49.24,1027.39,2038.00,3487.10,3226.92,3514.02,599.98,604.76,8.70,0000 0000 0000 0000 000000
2015-09-16 03:36:50,0.00,0.03,0.00,21.72,27.45,30.68,14.79,49.34,1027.41,2038.00,3487.03,3226.94,3514.01,599.87,604.81,8.75,0000 0000 0000 0000 000000
2015-09-16 03:41:51,0.00,0.03,0.00,21.68,27.45,30.73,14.80,49.17,1027.42,2038.00,3487.02,3226.97,3514.00,600.25,605.22,8.80,0000 0000 0000 0000 000000
2015-09-16 03:46:53,0.00,0.03,0.00,21.61,27.45,30.69,14.86,49.23,1027.43,2038.00,3487.01,3226.96,3514.00,600.07,605.34,8.85,0000 0000 0000 0000 000000
2015-09-16 03:51:54,0.00,0.03,0.00,21.73,27.45,30.65,14.85,49.24,1027.53,2038.00,3487.00,3226.95,3514.00,599.96,604.94,8.90,0000 0000 0000 0000 000000
2015-09-16 03:56:55,0.01,0.03,0.00,22.07,27.45,30.49,14.78,49.10,1027.70,2038.00,3486.99,3226.64,3513.98,599.77,604.05,8.95,0000 0000 0000 0000 000000
2015-09-16 04:01:56,0.01,0.03,0.00,22.00,27.47,30.50,14.86,49.27,1027.74,2038.00,3486.93,3226.25,3513.93,600.12,604.63,9.00,0000 0000 0000 0000 000000
2015-09-16 04:06:57,0.00,0.04,0.00,21.84,27.47,30.51,14.85,49.27,1027.68,2038.00,3486.77,3226.15,3513.83,600.24,605.14,9.05,0000 0000 0000 0000 000000
2015-09-16 04:11:58,0.01,0.04,0.00,21.74,27.47,30.66,14.87,49.25,1027.53,2038.00,3486.44,3226.15,3513.68,599.61,604.68,9.10,0000 0000 0000 0000 000000
2015-09-16 04:17:00,0.01,0.04,0.00,21.67,27.47,30.74,14.82,49.12,1027.70,2038.00,3486.09,3226.11,3513.38,599.68,604.82,9.15,0000 0000 0000 0000 000000
2015-09-16 04:22:01,0.00,0.04,0.00,21.64,27.46,30.69,14.87,49.37,1027.65,2038.00,3486.01,3226.01,3513.08,600.01,605.27,9.20,0000 0000 0000 0000 000000
2015-09-16 04:27:02,0.00,0.04,0.00,21.58,27.45,30.62,14.86,49.31,1027.63,2038.00,3486.00,3226.02,3513.03,600.06,605.39,9.25,0000 0000 0000 0000 000000
2015-09-16 04:32:04,0.00,0.04,0.00,21.58,27.45,30.60,14.87,49.31,1027.56,2038.00,3486.00,3226.01,3513.02,600.20,605.58,9.30,0000 0000 0000 0000 000000
2015-09-16 04:37:05,0.00,0.04,0.00,21.80,27.45,30.68,14.80,49.27,1027.45,2038.00,3485.99,3226.02,3513.00,600.30,605.01,9.35,0000 0000 0000 0000 000000
2015-09-16 04:42:06,0.00,0.04,0.00,22.11,27.45,30.56,14.85,49.27,1027.42,2038.00,3485.99,3226.02,3513.00,600.28,604.47,9.40,0000 0000 0000 0000 000000
2015-09-16 04:47:07,0.00,0.04,0.00,22.03,27.46,30.49,14.76,49.19,1027.38,2038.00,3485.99,3226.01,3513.00,599.98,604.35,9.45,0000 0000 0000 0000 000000
2015-09-16 04:52:08,0.00,0.04,0.00,21.83,27.47,30.52,14.90,49.30,1027.38,2038.00,3485.98,3226.01,3513.00,600.40,605.07,9.50,0000 0000 0000 0000 000000
2015-09-16 04:57:09,0.00,0.04,0.00,21.76,27.47,30.62,14.89,49.19,1027.49,2038.00,3485.87,3226.00,3512.99,600.19,605.17,9.55,0000 0000 0000 0000 000000
2015-09-16 05:02:11,0.00,0.04,0.00,21.68,27.46,30.70,14.73,49.20,1027.61,2038.00,3485.46,3226.00,3512.98,599.55,604.66,9.60,0000 0000 0000 0000 000000
2015-09-16 05:07:12,0.00,0.04,0.00,21.62,27.45,30.67,14.83,49.29,1027.49,2038.00,3485.05,3226.00,3512.94,599.96,605.28,9.65,0000 0000 0000 0000 000000
2015-09-16 05:12:13,0.00,0.04,0.00,21.59,27.45,30.60,14.86,49.34,1027.55,2038.00,3485.03,3226.00,3512.90,600.09,605.36,9.70,0000 0000 0000 0000 000000
2015-09-16 05:17:15,0.00,0.04,0.00,21.61,27.45,30.63,14.87,49.30,1027.60,2038.00,3485.03,3226.00,3512.91,599.94,605.35,9.75,0000 0000 0000 0000 000000
2015-09-16 05:22:17,0.00,0.04,0.00,21.97,27.45,30.59,14.83,49.19,1027.49,2038.00,3485.02,3226.00,3512.79,600.18,604.68,9.80,0000 0000 0000 0000 000000
2015-09-16 05:27:18,0.00,0.04,0.00,22.05,27.45,30.46,14.85,49.13,1027.38,2038.00,3485.00,3226.00,3512.39,600.47,604.78,9.85,0000 0000 0000 0000 000000
2015-09-16 05:32:19,0.00,0.04,0.00,21.87,27.46,30.47,14.85,49.02,1027.38,2038.00,3485.00,3226.00,3512.10,599.93,604.38,9.90,0000 0000 0000 0000 000000
2015-09-16 05:37:21,0.00,0.04,0.00,21.77,27.46,30.54,14.83,49.19,1027.37,2038.00,3484.99,3225.99,3512.02,600.10,604.99,9.95,0000 0000 0000 0000 000000
2015-09-16 05:42:22,0.00,0.04,0.00,21.68,27.45,30.69,14.87,49.17,1027.38,2038.00,3484.88,3225.98,3512.01,600.14,605.24,10.00,0000 0000 0000 0000 000000
2015-09-16 05:47:23,0.01,0.04,0.00,21.64,27.45,30.70,14.88,49.36,1027.37,2038.00,3484.42,3225.97,3512.00,599.76,604.89,10.05,0000 0000 0000 0000 000000
2015-09-16 05:52:25,0.00,0.04,0.00,21.60,27.45,30.64,14.81,49.22,1027.37,2038.00,3484.26,3225.97,3512.00,599.74,605.02,10.10,0000 0000 0000 0000 000000
2015-09-16 05:57:27,0.00,0.04,0.00,21.61,27.45,30.66,14.81,49.23,1027.37,2038.00,3484.09,3225.96,3512.00,599.79,605.06,10.15,0000 0000 0000 0000 000000
2015-09-16 06:02:28,0.00,0.04,0.00,21.95,27.45,30.55,14.84,49.29,1027.37,2038.00,3484.03,3225.92,3512.00,600.34,604.89,10.20,0000 0000 0000 0000 000000
2015-09-16 06:07:29,0.00,0.04,0.00,22.08,27.46,30.45,14.82,49.26,1027.37,2038.00,3484.02,3225.80,3511.99,600.46,604.69,10.25,0000 0000 0000 0000 000000
2015-09-16 06:12:30,0.01,0.04,0.00,21.91,27.47,30.44,14.85,49.19,1027.37,2038.00,3484.00,3225.43,3511.97,600.09,604.65,10.30,0000 0000 0000 0000 000000
2015-09-16 06:17:31,-0.00,0.04,0.00,21.83,27.47,30.50,14.84,49.23,1027.36,2038.00,3484.00,3225.30,3511.94,599.87,604.64,10.35,0000 0000 0000 0000 000000
2015-09-16 06:22:33,0.01,0.04,0.00,21.81,27.47,30.60,14.88,49.23,1027.36,2038.00,3483.98,3225.09,3511.58,600.20,604.96,10.40,0000 0000 0000 0000 000000
2015-09-16 06:27:33,-0.00,0.04,0.00,21.74,27.47,30.73,14.87,49.36,1027.36,2038.00,3483.95,3225.10,3511.46,599.70,604.60,10.45,0000 0000 0000 0000 000000
2015-09-16 06:32:34,0.01,0.04,0.00,21.68,27.47,30.71,14.86,49.12,1027.36,2038.00,3483.70,3225.06,3511.17,600.24,605.29,10.50,0000 0000 0000 0000 000000
2015-09-16 06:37:36,0.01,0.04,0.00,21.93,27.47,30.47,14.80,49.17,1027.37,2038.00,3483.10,3225.02,3511.06,599.95,604.41,10.55,0000 0000 0000 0000 000000
2015-09-16 06:42:37,0.00,0.04,0.00,22.17,27.48,30.42,14.76,49.02,1027.36,2038.00,3483.00,3225.00,3511.00,600.00,604.05,10.60,0000 0000 0000 0000 000000
2015-09-16 06:47:39,0.00,0.04,0.00,22.00,27.50,30.42,14.88,49.01,1027.37,2038.00,3483.00,3225.00,3511.00,600.14,604.61,10.65,0000 0000 0000 0000 000000
2015-09-16 06:52:40,0.00,0.04,0.00,21.86,27.50,30.50,14.80,49.03,1027.38,2037.99,3482.98,3225.00,3510.99,600.04,604.76,10.71,0000 0000 0000 0000 000000
2015-09-16 06:57:41,0.00,0.04,0.00,21.76,27.50,30.59,14.88,49.31,1027.38,2037.99,3482.97,3225.00,3510.98,600.12,604.99,10.76,0000 0000 0000 0000 000000
2015-09-16 07:02:42,0.00,0.04,0.00,21.71,27.50,30.71,14.76,48.98,1027.37,2037.99,3482.92,3224.99,3510.96,599.50,604.55,10.81,0000 0000 0000 0000 000000
2015-09-16 07:07:44,0.02,0.04,0.00,21.65,27.50,30.71,14.87,49.21,1027.36,2037.99,3482.30,3224.98,3510.56,600.52,605.55,10.86,0000 0000 0000 0000 000000
2015-09-16 07:12:45,0.00,0.04,0.00,21.77,27.50,30.64,14.81,49.15,1027.36,2037.99,3482.01,3224.95,3510.15,599.68,604.52,10.91,0000 0000 0000 0000 000000
2015-09-16 07:17:47,0.00,0.04,0.00,22.10,27.50,30.50,14.78,49.06,1027.36,2037.99,3482.00,3224.87,3510.07,600.04,604.22,10.96,0000 0000 0000 0000 000000
2015-09-16 07:22:48,0.02,0.04,0.00,22.01,27.50,30.48,14.79,49.08,1027.36,2037.99,3481.93,3224.37,3510.01,600.09,604.41,11.01,0000 0000 0000 0000 000000
2015-09-16 07:27:49,0.00,0.04,0.00,21.83,27.50,30.53,14.79,49.07,1027.37,2037.99,3481.68,3224.08,3510.00,599.88,604.73,11.06,0000 0000 0000 0000 000000
2015-09-16 07:32:50,0.01,0.04,0.00,21.73,27.50,30.69,14.80,49.19,1027.37,2037.99,3481.27,3224.06,3510.00,599.50,604.53,11.11,0000 0000 0000 0000 000000
2015-09-16 07:37:51,0.00,0.05,0.00,21.68,27.50,30.74,14.86,49.08,1027.36,2037.98,3481.03,3224.03,3509.98,600.26,605.19,11.16,0000 0000 0000 0000 000000
2015-09-16 07:42:52,0.00,0.05,0.00,21.62,27.50,30.65,14.82,49.06,1027.36,2037.99,3481.01,3224.02,3509.98,599.99,605.08,11.21,0000 0000 0000 0000 000000
2015-09-16 07:47:54,0.00,0.05,0.00,21.60,27.49,30.67,14.85,49.24,1027.36,2037.99,3481.00,3224.02,3509.96,600.00,605.14,11.26,0000 0000 0000 0000 000000
2015-09-16 07:52:55,0.00,0.05,0.00,21.83,27.49,30.72,14.88,49.11,1027.36,2037.98,3481.00,3224.00,3509.55,600.25,605.00,11.31,0000 0000 0000 0000 000000
2015-09-16 07:57:56,0.00,0.05,0.00,22.11,27.50,30.59,14.78,49.08,1027.36,2037.99,3481.00,3224.00,3509.56,599.96,604.03,11.36,0000 0000 0000 0000 000000
2015-09-16 08:02:57,0.00,0.05,0.00,21.97,27.50,30.52,14.80,49.08,1027.36,2037.99,3480.99,3224.00,3509.45,600.07,604.46,11.41,0000 0000 0000 0000 000000
2015-09-16 08:07:58,0.00,0.05,0.00,21.79,27.50,30.59,14.81,49.01,1027.36,2037.99,3480.98,3224.00,3509.14,599.99,604.83,11.46,0000 0000 0000 0000 000000
2015-09-16 08:12:59,0.00,0.05,0.00,21.71,27.50,30.71,14.81,48.94,1027.36,2037.99,3480.92,3224.00,3509.10,599.89,604.85,11.51,0000 0000 0000 0000 000000
2015-09-16 08:18:01,0.00,0.05,0.00,21.64,27.50,30.71,14.88,48.99,1027.36,2037.99,3480.69,3224.00,3509.06,600.30,605.34,11.56,0000 0000 0000 0000 000000
2015-09-16 08:23:02,0.00,0.05,0.00,21.59,27.49,30.66,14.93,49.28,1027.36,2037.98,3480.12,3224.00,3509.02,600.51,605.71,11.61,0000 0000 0000 0000 000000
2015-09-16 08:28:03,-0.00,0.05,0.00,21.64,27.48,30.64,14.88,49.29,1027.36,2037.99,3480.06,3223.99,3509.00,600.27,605.43,11.66,0000 0000 0000 0000 000000
2015-09-16 08:33:04,0.00,0.05,0.00,21.98,27.49,30.72,14.79,49.04,1027.33,2037.99,3480.05,3223.99,3509.00,600.10,604.62,11.71,0000 0000 0000 0000 000000
2015-09-16 08:38:05,0.00,0.05,0.00,22.06,27.50,30.54,14.73,48.96,1027.32,2037.99,3480.02,3223.99,3509.00,599.99,604.17,11.76,0000 0000 0000 0000 000000
2015-09-16 08:43:07,0.00,0.05,0.00,21.85,27.50,30.58,14.81,48.90,1027.21,2037.99,3480.01,3223.98,3508.99,599.94,604.51,11.81,0000 0000 0000 0000 000000
2015-09-16 08:48:08,0.00,0.05,0.00,21.74,27.50,30.73,14.82,49.23,1027.19,2037.99,3480.00,3223.98,3508.98,599.89,604.57,11.86,0000 0000 0000 0000 000000
2015-09-16 08:53:09,0.00,0.05,0.00,21.67,27.50,30.72,14.79,49.15,1027.21,2037.98,3479.99,3223.95,3508.98,599.69,604.58,11.91,0000 0000 0000 0000 000000
2015-09-16 08:58:11,0.00,0.05,0.00,21.60,27.49,30.63,14.79,48.98,1027.09,2037.99,3479.98,3223.96,3508.97,599.69,604.72,11.96,0000 0000 0000 0000 000000
2015-09-16 09:03:12,0.00,0.05,0.00,21.57,27.48,30.63,14.87,49.17,1027.03,2037.99,3479.97,3223.98,3508.97,600.13,605.22,12.01,0000 0000 0000 0000 000000
2015-09-16 09:08:13,0.00,0.05,0.00,21.56,27.47,30.68,14.80,49.22,1027.00,2037.99,3479.98,3223.98,3508.98,599.95,605.00,12.06,0000 0000 0000 0000 000000
2015-09-16 09:13:14,0.00,0.05,0.00,21.88,27.47,30.65,14.96,49.15,1026.96,2037.99,3479.99,3223.99,3508.98,599.99,604.32,12.11,0000 0000 0000 0000 000000
2015-09-16 09:18:16,0.00,0.05,0.00,21.97,27.47,30.50,14.83,49.15,1026.98,2037.99,3479.96,3223.98,3508.95,599.99,604.23,12.16,0000 0000 0000 0000 000000
2015-09-16 09:23:17,0.01,0.05,0.00,21.80,27.47,30.51,14.87,49.02,1026.99,2037.99,3479.80,3223.94,3508.83,600.22,604.84,12.21,0000 0000 0000 0000 000000
2015-09-16 09:28:18,0.01,0.05,0.00,21.71,27.47,30.64,14.83,49.20,1026.99,2037.99,3479.24,3223.87,3508.51,599.92,604.75,12.26,0000 0000 0000 0000 000000
2015-09-16 09:33:20,0.00,0.05,0.00,21.62,27.47,30.72,14.93,49.13,1027.02,2037.99,3479.08,3223.77,3508.21,600.51,605.33,12.31,0000 0000 0000 0000 000000
2015-09-16 09:38:21,0.00,0.05,0.00,21.59,27.47,30.66,14.89,49.46,1027.06,2037.99,3479.02,3223.80,3508.11,599.82,604.91,12.36,0000 0000 0000 0000 000000
2015-09-16 09:43:22,0.01,0.05,0.00,21.54,27.47,30.59,14.86,49.14,1027.12,2037.99,3479.00,3223.45,3508.04,600.33,605.40,12.41,0000 0000 0000 0000 000000
2015-09-16 09:48:23,-0.01,0.05,0.00,21.55,27.45,30.58,14.88,49.37,1027.18,2037.99,3479.00,3223.55,3508.03,600.15,605.18,12.46,0000 0000 0000 0000 000000
2015-09-16 09:53:25,0.00,0.05,0.00,21.88,27.45,30.69,14.85,49.30,1027.32,2037.99,3479.00,3223.77,3508.06,600.28,604.94,12.51,0000 0000 0000 0000 000000
2015-09-16 09:58:26,0.00,0.05,0.00,22.02,27.47,30.56,14.76,49.04,1027.36,2037.99,3479.00,3223.69,3508.03,600.00,604.26,12.56,0000 0000 0000 0000 000000
2015-09-16 10:03:27,0.01,0.05,0.00,21.83,27.47,30.53,14.76,49.13,1027.36,2037.99,3479.00,3223.55,3508.01,599.58,604.30,12.61,0000 0000 0000 0000 000000
2015-09-16 10:08:29,0.00,0.05,0.00,21.69,27.47,30.68,14.90,49.20,1027.36,2037.99,3479.00,3223.42,3508.00,600.00,605.07,12.66,0000 0000 0000 0000 000000
2015-09-16 10:13:30,0.00,0.05,0.00,21.65,27.47,30.70,14.89,49.09,1027.36,2037.99,3478.99,3223.36,3508.00,600.25,605.32,12.71,0000 0000 0000 0000 000000
2015-09-16 10:18:31,0.00,0.05,0.00,21.64,27.45,30.65,14.90,49.41,1027.36,2037.99,3478.97,3223.29,3508.00,600.14,605.23,12.76,0000 0000 0000 0000 000000
2015-09-16 10:23:32,0.00,0.05,0.00,21.61,27.45,30.62,14.85,49.15,1027.36,2037.99,3478.93,3223.19,3508.00,600.27,605.46,12.81,0000 0000 0000 0000 000000
2015-09-16 10:28:34,0.00,0.05,0.00,21.73,27.45,30.65,14.89,49.31,1027.36,2038.00,3478.93,3223.18,3508.00,600.28,605.23,12.86,0000 0000 0000 0000 000000
2015-09-16 10:33:35,0.00,0.05,0.00,22.08,27.46,30.54,14.85,49.20,1027.36,2038.00,3478.96,3223.25,3508.00,600.18,604.37,12.91,0000 0000 0000 0000 000000
2015-09-16 10:38:37,0.01,0.05,0.00,21.98,27.47,30.46,14.85,49.24,1027.36,2038.00,3478.69,3223.06,3507.99,600.11,604.51,12.96,0000 0000 0000 0000 000000
2015-09-16 10:43:38,0.00,0.05,0.00,21.80,27.47,30.52,14.87,49.25,1027.36,2038.00,3478.19,3223.02,3507.96,600.09,605.01,13.02,0000 0000 0000 0000 000000
2015-09-16 10:48:40,0.00,0.05,0.00,21.70,27.47,30.59,14.81,49.16,1027.36,2038.00,3478.06,3223.01,3507.95,599.80,604.81,13.07,0000 0000 0000 0000 000000
2015-09-16 10:53:41,0.00,0.05,0.00,21.63,27.45,30.71,14.79,49.28,1027.36,2038.00,3478.01,3223.01,3507.91,599.90,605.09,13.12,0000 0000 0000 0000 000000
2015-09-16 10:58:42,0.00,0.05,0.00,21.59,27.45,30.66,14.85,49.25,1027.36,2038.00,3478.02,3223.03,3507.96,600.02,605.31,13.17,0000 0000 0000 0000 000000
2015-09-16 11:03:43,0.00,0.05,0.00,21.51,27.45,30.60,14.88,49.07,1027.36,2038.00,3478.01,3223.03,3507.90,600.09,605.40,13.22,0000 0000 0000 0000 000000
2015-09-16 11:08:45,0.00,0.05,0.00,21.52,27.45,30.60,14.88,49.33,1027.36,2038.00,3478.00,3223.01,3507.80,600.14,605.55,13.27,0000 0000 0000 0000 000000
2015-09-16 11:13:46,0.00,0.05,0.00,21.83,27.45,30.70,14.76,49.17,1027.36,2038.00,3478.00,3223.02,3507.72,599.79,604.53,13.32,0000 0000 0000 0000 000000
2015-09-16 11:18:47,-0.00,0.05,0.00,22.06,27.45,30.57,14.84,49.08,1027.36,2038.00,3478.00,3223.00,3507.62,599.69,604.04,13.37,0000 0000 0000 0000 000000
2015-09-16 11:23:48,0.00,0.05,0.00,21.87,27.45,30.52,14.85,49.22,1027.36,2038.00,3478.00,3223.00,3507.31,600.03,604.63,13.42,0000 0000 0000 0000 000000
2015-09-16 11:28:50,0.00,0.05,0.00,21.71,27.45,30.61,14.81,49.30,1027.36,2038.01,3477.99,3223.00,3507.31,599.87,604.83,13.47,0000 0000 0000 0000 000000
2015-09-16 11:33:51,0.00,0.05,0.00,21.66,27.45,30.71,14.79,49.28,1027.36,2038.00,3477.98,3223.00,3507.11,599.87,604.97,13.52,0000 0000 0000 0000 000000
2015-09-16 11:38:52,0.00,0.05,0.00,21.58,27.45,30.67,14.85,49.24,1027.36,2038.00,3477.95,3223.00,3507.11,599.82,605.15,13.57,0000 0000 0000 0000 000000
2015-09-16 11:43:53,0.00,0.05,0.00,21.53,27.44,30.58,14.85,49.26,1027.36,2038.00,3477.85,3223.00,3507.06,600.06,605.48,13.62,0000 0000 0000 0000 000000
2015-09-16 11:48:54,-0.00,0.05,0.00,21.50,27.42,30.57,14.87,49.41,1027.36,2038.01,3477.82,3223.00,3507.08,600.32,605.70,13.67,0000 0000 0000 0000 000000
2015-09-16 11:53:56,0.00,0.05,0.00,21.45,27.42,30.60,14.87,49.36,1027.36,2038.01,3477.60,3222.99,3507.05,600.00,605.55,13.72,0000 0000 0000 0000 000000
2015-09-16 11:58:57,-0.00,0.05,0.00,21.67,27.42,30.67,14.86,49.26,1027.36,2038.02,3477.82,3223.00,3507.10,600.09,605.13,13.77,0000 0000 0000 0000 000000
2015-09-16 12:03:59,0.00,0.05,0.00,21.97,27.42,30.56,14.88,49.23,1027.36,2038.04,3477.84,3223.00,3507.08,600.09,604.67,13.82,0000 0000 0000 0000 000000
2015-09-16 12:09:00,0.00,0.05,0.00,21.83,27.42,30.48,14.88,49.21,1027.36,2038.04,3477.44,3223.00,3507.04,599.96,604.69,13.87,0000 0000 0000 0000 000000
2015-09-16 12:14:01,0.00,0.05,0.00,21.68,27.42,30.57,14.86,49.19,1027.36,2038.01,3477.09,3223.00,3507.01,600.20,605.23,13.92,0000 0000 0000 0000 000000
2015-09-16 12:19:03,0.00,0.05,0.00,21.59,27.42,30.69,14.76,49.21,1027.34,2038.03,3477.05,3223.00,3507.01,600.04,605.41,13.97,0000 0000 0000 0000 000000
2015-09-16 12:24:04,0.00,0.05,0.00,21.57,27.42,30.64,14.84,49.23,1027.32,2038.08,3477.04,3223.00,3507.01,599.89,605.13,14.02,0000 0000 0000 0000 000000
2015-09-16 12:29:05,0.00,0.05,0.00,21.52,27.42,30.58,14.85,49.31,1027.31,2038.13,3477.04,3223.00,3507.01,599.76,605.05,14.07,0000 0000 0000 0000 000000
2015-09-16 12:34:07,-0.00,0.05,0.00,21.46,27.41,30.55,14.81,49.12,1027.25,2038.16,3477.03,3223.00,3507.02,599.96,605.40,14.12,0000 0000 0000 0000 000000
2015-09-16 12:39:08,-0.00,0.05,0.00,21.42,27.40,30.52,14.87,49.33,1027.13,2038.09,3477.03,3223.00,3507.00,599.98,605.44,14.17,0000 0000 0000 0000 000000
2015-09-16 12:44:09,0.01,0.05,0.00,21.52,27.40,30.58,14.83,49.27,1027.17,2038.20,3477.02,3223.00,3507.00,600.14,605.26,14.22,0000 0000 0000 0000 000000
2015-09-16 12:49:10,0.01,0.05,0.00,21.90,27.40,30.64,14.90,49.38,1027.14,2038.40,3477.04,3223.00,3507.02,600.31,604.70,14.27,0000 0000 0000 0000 000000
2015-09-16 12:54:11,-0.01,0.05,0.00,21.87,27.41,30.51,14.86,49.21,1027.07,2038.34,3477.02,3223.00,3507.00,600.05,604.46,14.32,0000 0000 0000 0000 000000